[[{"header":{"parameterUnit":"m.s-1","parameterCategory":1,"la1":30.2991,"la2":30.254,"lo1":-89.0895,"lo2":-89.0444,"dy":0.0017,"dx":0.0017,"nx":28,"ny":28,"refTime":"2024-04-17T21:00:00:Z","depth":0,"parameterNumber":2,"parameterNumberName":"U-component_of_WINDS"},"data":[0,0,0,0,0,0,0,0,0,0,0,0,0,0,0,0,0,0,0,0,0,0,0,0,0,0,0,0,0,0,0,0,0,0,0,0,0,0,0,0,0,0,0,0,0,0,0,0,0,0,0,0,0,0,0,0,0,0,-1.7838,-1.7839,0,-1.7899,-1.79,-1.7901,-1.7887,-1.7886,-1.7885,-1.7884,-1.7946,-1.7949,-1.7952,0,0,0,0,0,0,0,0,0,0,0,0,0,-1.7708,-1.7711,-1.7838,-1.7839,-1.7839,-1.7899,-1.79,-1.7901,-1.7888,-1.7886,-1.7885,-1.7883,-1.7945,-1.7949,-1.7952,0,0,0,0,0,0,0,0,0,0,0,0,0,-1.7767,-1.7711,-1.7838,-1.784,-1.7841,-1.7899,-1.79,-1.7901,-1.7888,-1.7886,-1.7884,-1.7883,-1.7944,-1.7948,-1.7952,-1.8012,0,0,-1.7965,-1.7967,0,0,0,0,0,0,0,0,-1.7763,-1.7771,-1.7839,-1.784,-1.7841,-1.7884,-1.7877,-1.7938,-1.7888,-1.787,-1.7884,-1.7882,-1.7927,-1.7932,-1.7948,-1.8015,-1.8018,-1.7965,-1.7968,-1.797,-1.7971,0,0,0,0,0,0,0,-1.7759,-1.7769,-1.7862,-1.784,-1.7841,-1.7838,-1.7844,-1.7889,-1.7907,-1.7871,-1.7871,-1.7878,-1.7927,-1.7944,-1.7949,-1.8019,-1.7965,-1.7969,-1.7971,-1.7973,-1.8138,-1.814,0,0,0,0,0,0,-1.7754,-1.7765,-1.786,-1.7864,-1.7797,-1.7841,-1.7849,-1.7872,-1.7907,-1.791,-1.7879,-1.7877,-1.7938,-1.7944,-1.7951,-1.8023,-1.7969,-1.7973,-1.7976,-1.8136,-1.8138,-1.814,0,0,0,0,0,0,-1.7752,-1.7763,-1.7858,-1.7814,-1.7826,-1.7845,-1.7872,-1.7874,-1.7891,-1.7913,-1.7916,-1.7893,-1.7936,-1.7945,-1.7997,-1.8025,-1.7975,-1.7979,-1.8134,-1.8137,-1.8139,-1.8168,0,0,0,0,0,0,-1.7748,-1.7762,-1.7785,-1.7815,-1.7829,-1.7903,-1.7873,-1.7876,-1.7898,-1.7895,-1.7927,-1.793,-1.7936,-1.7991,-1.8001,-1.803,-1.7982,-1.8131,-1.8135,-1.8138,-1.8165,-1.8171,-1.8177,0,0,0,0,0,-1.7743,-1.7791,-1.7786,-1.7798,-1.7858,-1.7905,-1.7912,-1.7918,-1.79,-1.7923,-1.7938,-1.7929,-1.802,-1.7996,-1.8008,-1.8038,-1.8129,-1.8134,-1.8138,-1.8162,-1.817,-1.8177,0,0,0,0,0,0,-1.7764,-1.7795,-1.779,-1.7849,-1.7874,-1.7902,-1.7932,-1.7927,-1.7958,-1.7954,-1.796,-1.7967,-1.802,-1.8034,-1.8007,-1.8098,-1.8072,-1.8079,-1.8086,-1.8095,-1.8101,-1.8096,-1.7985,0,0,0,0,0,-1.7775,-1.781,-1.7836,-1.7885,-1.7898,-1.7913,-1.7933,-1.7935,-1.7962,-1.7973,-1.7991,-1.8016,-1.8051,-1.8073,-1.8106,-1.8166,-1.8173,-1.8193,-1.8199,-1.8204,-1.821,-1.8243,-1.8252,-1.8154,-1.8154,-1.8154,0,0,-1.7799,-1.782,-1.7842,-1.7889,-1.7909,-1.7946,-1.7922,-1.7961,-1.7988,-1.7978,-1.8028,-1.8043,-1.8072,-1.8128,-1.8153,-1.8141,-1.8239,-1.821,-1.8214,-1.8217,-1.8248,-1.8257,-1.8266,-1.8157,-1.8157,-1.8156,0,0,-1.7861,-1.788,-1.7923,-1.7944,-1.7974,-1.7984,-1.7994,-1.8023,-1.8032,-1.8082,-1.8075,-1.8107,-1.8167,-1.8188,-1.8206,-1.8275,-1.8269,-1.8286,-1.8319,-1.8351,-1.8359,-1.8366,-1.839,-1.8399,-1.8292,-1.8292,-1.8292,0,-1.7886,-1.7941,-1.7946,-1.7986,-1.8007,-1.8,-1.8044,-1.8063,-1.8103,-1.8117,-1.8103,-1.8177,-1.8196,-1.8257,-1.8274,-1.8289,-1.8301,-1.8283,-1.8357,-1.8364,-1.8371,-1.8394,-1.8403,-1.8294,-1.8293,-1.8293,-1.8293,0,-1.7971,-1.8009,-1.804,-1.8078,-1.8103,-1.8144,-1.8156,-1.818,-1.818,-1.8191,-1.8241,-1.8264,-1.8301,-1.8316,-1.8316,-1.8377,-1.8368,-1.8356,-1.833,-1.8382,-1.8404,-1.8413,-1.8296,-1.8296,-1.8295,-1.8295,0,0,-1.8048,-1.8088,-1.81,-1.8117,-1.815,-1.8179,-1.822,-1.8257,-1.8277,-1.8304,-1.8339,-1.8389,-1.8377,-1.8398,-1.8401,-1.8429,-1.8482,-1.8413,-1.8413,-1.8425,-1.855,-1.8559,-1.8569,-1.8478,-1.8479,-1.8481,-1.8547,0,-1.8113,-1.8185,-1.8191,-1.8256,-1.8291,-1.8285,-1.832,-1.8344,-1.8355,-1.8386,-1.8398,-1.8434,-1.8416,-1.8429,-1.8456,-1.847,-1.8507,-1.8465,-1.8509,-1.8511,-1.8502,-1.8581,-1.8591,-1.8653,-1.8556,-1.8557,-1.8558,0,-1.8198,-1.8228,-1.8297,-1.8324,-1.8339,-1.8371,-1.8405,-1.8435,-1.8462,-1.8468,-1.8491,-1.849,-1.8531,-1.8504,-1.8562,-1.8533,-1.8552,-1.8561,-1.8564,-1.8568,-1.8538,-1.8587,-1.8672,-1.8682,-1.8572,-1.8571,-1.857,0,-1.8247,-1.8305,-1.8353,-1.8368,-1.8401,-1.8424,-1.8439,-1.8464,-1.8485,-1.8515,-1.8529,-1.8563,-1.8581,-1.8607,-1.8615,-1.8595,-1.8672,-1.8646,-1.8678,-1.8678,-1.8695,-1.8694,-1.8784,-1.8707,-1.8707,-1.8707,-1.8707,0,-1.8319,-1.8362,-1.8376,-1.8406,-1.8453,-1.8458,-1.8505,-1.8518,-1.8541,-1.8573,-1.8569,-1.8599,-1.8608,-1.8639,-1.8646,-1.8692,-1.8701,-1.8707,-1.8708,-1.8707,-1.8706,-1.8719,-1.8715,-1.8709,-1.8709,-1.8708,-1.8708,0,-1.8382,-1.8393,-1.8446,-1.8473,-1.8481,-1.8514,-1.8537,-1.8566,-1.8576,-1.8617,-1.8627,-1.8643,-1.868,-1.869,-1.8735,-1.8739,-1.8794,-1.8791,-1.8785,-1.8785,-1.8817,-1.8813,-1.8919,-1.8933,-1.8846,-1.8847,-1.8847,0,-1.8427,-1.846,-1.849,-1.8511,-1.8527,-1.8562,-1.8583,-1.859,-1.8613,-1.8646,-1.867,-1.8707,-1.8736,-1.8796,-1.8811,-1.8845,-1.8843,-1.8878,-1.8848,-1.8847,-1.8844,-1.8842,-1.8845,-1.8883,-1.8884,-1.8885,-1.8886,0,-1.8507,-1.851,-1.8542,-1.8576,-1.8602,-1.8629,-1.8654,-1.8672,-1.8682,-1.8708,-1.8746,-1.8769,-1.8814,-1.885,-1.8884,-1.8899,-1.8894,-1.8895,-1.8904,-1.8904,-1.8899,-1.8902,-1.88,-1.8892,-1.8892,-1.8891,-1.8891,-1.8891,-1.8562,-1.8591,-1.8616,-1.8651,-1.8671,-1.8695,-1.8723,-1.8737,-1.8769,-1.8806,-1.8808,-1.8849,-1.8874,-1.892,-1.8937,-1.8969,-1.8958,-1.8972,-1.8975,-1.8979,-1.8981,-1.8894,-1.8975,-1.8975,-1.8975,-1.8974,-1.8974,0,-1.8641,-1.8657,-1.8689,-1.8725,-1.8753,-1.8746,-1.8774,-1.8797,-1.8833,-1.8857,-1.8886,-1.893,-1.8965,-1.8983,-1.9018,-1.904,-1.9038,-1.9049,-1.9047,-1.9051,-1.8988,-1.8977,-1.9049,-1.9049,-1.9049,-1.9049,-1.9049,-1.9049,-1.8686,-1.8733,-1.874,-1.8797,-1.8812,-1.8853,-1.8869,-1.8891,-1.891,-1.8959,-1.8988,-1.8999,-1.9021,-1.9057,-1.9089,-1.9093,-1.9106,-1.9118,-1.9121,-1.9063,-1.9055,-1.9048,-1.9037,-1.9121,-1.9121,-1.9181,-1.9181,-1.9182]},{"header":{"parameterUnit":"m.s-1","parameterCategory":1,"la1":30.2991,"la2":30.254,"lo1":-89.0895,"lo2":-89.0444,"dy":0.0017,"dx":0.0017,"nx":28,"ny":28,"refTime":"2024-04-17T21:00:00:Z","depth":0,"parameterNumber":3,"parameterNumberName":"V-component_of_WINDS"},"data":[0,0,0,0,0,0,0,0,0,0,0,0,0,0,0,0,0,0,0,0,0,0,0,0,0,0,0,0,0,0,0,0,0,0,0,0,0,0,0,0,0,0,0,0,0,0,0,0,0,0,0,0,0,0,0,0,0,0,1.3872,1.3872,0,1.3897,1.3898,1.3898,1.3884,1.3883,1.3882,1.3882,1.3906,1.3907,1.3909,0,0,0,0,0,0,0,0,0,0,0,0,0,1.3809,1.381,1.3871,1.3872,1.3872,1.3897,1.3898,1.3898,1.3884,1.3883,1.3882,1.3881,1.3906,1.3907,1.3909,0,0,0,0,0,0,0,0,0,0,0,0,0,1.3835,1.381,1.3871,1.3868,1.3868,1.3897,1.3898,1.3898,1.3884,1.3883,1.3882,1.3881,1.3905,1.3907,1.3909,1.3942,0,0,1.3915,1.3916,0,0,0,0,0,0,0,0,1.3834,1.3838,1.3868,1.3868,1.3869,1.3886,1.3884,1.3913,1.3884,1.3878,1.3882,1.388,1.39,1.3902,1.391,1.3943,1.3944,1.3915,1.3916,1.3917,1.3918,0,0,0,0,0,0,0,1.3832,1.3837,1.3882,1.3869,1.3869,1.3865,1.3868,1.389,1.3895,1.3878,1.3878,1.3881,1.39,1.3908,1.391,1.3944,1.3915,1.3917,1.3918,1.3919,1.4007,1.4009,0,0,0,0,0,0,1.3831,1.3835,1.3881,1.3882,1.3848,1.3867,1.387,1.3882,1.3894,1.3895,1.3882,1.388,1.3905,1.3908,1.3911,1.3951,1.3917,1.3919,1.392,1.4006,1.4008,1.4009,0,0,0,0,0,0,1.3829,1.3835,1.388,1.3859,1.3864,1.3869,1.3882,1.3883,1.389,1.3897,1.3897,1.3889,1.3904,1.3908,1.3935,1.3951,1.392,1.3922,1.4005,1.4007,1.4008,1.4031,0,0,0,0,0,0,1.3828,1.3835,1.3847,1.3859,1.3865,1.3904,1.3883,1.3884,1.3894,1.3892,1.3904,1.3904,1.3904,1.3932,1.3937,1.3954,1.3923,1.4003,1.4006,1.4008,1.4029,1.4033,1.4037,0,0,0,0,0,1.3825,1.3852,1.3848,1.3854,1.3881,1.3905,1.3908,1.3907,1.3895,1.3908,1.3913,1.3904,1.3949,1.3935,1.394,1.3958,1.4002,1.4005,1.4008,1.4027,1.4032,1.4037,0,0,0,0,0,0,1.3841,1.3853,1.3849,1.388,1.3892,1.3902,1.3918,1.3913,1.3927,1.3925,1.3923,1.3925,1.3953,1.3958,1.3942,1.3991,1.3974,1.3978,1.3987,1.3992,1.3996,1.3994,1.3925,0,0,0,0,0,1.3848,1.3867,1.3876,1.3903,1.3909,1.3913,1.3923,1.3921,1.3933,1.3937,1.3943,1.3954,1.3971,1.3982,1.3997,1.403,1.4032,1.4045,1.4049,1.4052,1.4055,1.4074,1.4079,1.4018,1.4018,1.4018,0,0,1.3863,1.3872,1.3883,1.3906,1.3915,1.3934,1.3917,1.3937,1.3951,1.394,1.3966,1.3971,1.3983,1.4013,1.4026,1.4018,1.4073,1.4056,1.4058,1.406,1.4077,1.4083,1.4088,1.402,1.4019,1.4019,0,0,1.3899,1.3908,1.3931,1.3941,1.3955,1.3957,1.3963,1.3975,1.3978,1.4004,1.3997,1.4013,1.4042,1.4051,1.4059,1.4101,1.4094,1.4106,1.4128,1.4146,1.4151,1.4155,1.417,1.4175,1.4109,1.4109,1.4109,0,1.3915,1.3944,1.3944,1.3965,1.3976,1.3968,1.3992,1.4001,1.4018,1.4026,1.4016,1.4053,1.406,1.4093,1.4103,1.411,1.4116,1.4104,1.415,1.4154,1.4158,1.4173,1.4178,1.4111,1.4111,1.411,1.411,0,1.3964,1.3984,1.4001,1.402,1.4032,1.4054,1.4057,1.407,1.4068,1.4072,1.4099,1.4108,1.4125,1.4133,1.413,1.4165,1.416,1.415,1.4133,1.4166,1.4179,1.4185,1.4113,1.4112,1.4112,1.4111,0,0,1.4009,1.4029,1.4035,1.4044,1.4059,1.4075,1.4097,1.4115,1.4126,1.4139,1.4158,1.4183,1.4175,1.4184,1.4183,1.4199,1.4232,1.4187,1.4188,1.4195,1.4271,1.4278,1.4285,1.4228,1.4229,1.4229,1.427,0,1.4047,1.4087,1.4088,1.4124,1.4143,1.4137,1.4156,1.4168,1.4172,1.4188,1.4193,1.4211,1.4198,1.4204,1.422,1.4225,1.4247,1.4222,1.4245,1.4245,1.4242,1.4292,1.4299,1.4337,1.4275,1.4276,1.4277,0,1.4096,1.4112,1.415,1.4164,1.4172,1.4189,1.4207,1.4223,1.4236,1.4238,1.4249,1.4246,1.4269,1.4252,1.4283,1.4266,1.4275,1.4279,1.4281,1.4283,1.4263,1.4295,1.4349,1.4355,1.4285,1.4285,1.4284,0,1.4126,1.4156,1.4184,1.4192,1.4208,1.4221,1.4228,1.424,1.4252,1.4267,1.4274,1.4292,1.4301,1.4314,1.4316,1.4303,1.4348,1.433,1.435,1.435,1.4359,1.4359,1.4416,1.4366,1.4366,1.4366,1.4365,0,1.4167,1.4191,1.4198,1.4214,1.4241,1.4242,1.4269,1.4275,1.4286,1.4304,1.4299,1.4316,1.4317,1.4334,1.4335,1.4362,1.4366,1.4368,1.4368,1.4368,1.4368,1.4374,1.4372,1.4367,1.4367,1.4366,1.4366,0,1.4205,1.421,1.424,1.4254,1.4258,1.4277,1.4288,1.4304,1.4309,1.4332,1.4337,1.4344,1.4364,1.4367,1.439,1.4391,1.4423,1.442,1.4418,1.4418,1.4438,1.4436,1.45,1.4509,1.4454,1.4454,1.4455,0,1.4231,1.4249,1.4266,1.4278,1.4286,1.4306,1.4318,1.432,1.4333,1.435,1.4364,1.4384,1.4399,1.4432,1.4439,1.4457,1.4454,1.4476,1.4457,1.4457,1.4455,1.4454,1.4456,1.4479,1.448,1.448,1.4481,0,1.4277,1.4279,1.4297,1.4316,1.4331,1.4346,1.436,1.437,1.4374,1.4389,1.441,1.4422,1.4447,1.4467,1.4485,1.4492,1.4487,1.4487,1.4492,1.4493,1.4491,1.4493,1.4428,1.4485,1.4485,1.4484,1.4484,1.4484,1.431,1.4326,1.4341,1.4361,1.4372,1.4386,1.4402,1.4409,1.4427,1.4448,1.4448,1.4471,1.4485,1.4509,1.4517,1.4535,1.4528,1.4536,1.4538,1.454,1.4542,1.4489,1.4539,1.4539,1.4538,1.4538,1.4538,0,1.4356,1.4365,1.4384,1.4405,1.4421,1.4416,1.4432,1.4445,1.4466,1.448,1.4496,1.4521,1.454,1.4549,1.4568,1.4581,1.4579,1.4586,1.4585,1.4587,1.4547,1.4541,1.4587,1.4587,1.4587,1.4587,1.4587,1.4587,1.4382,1.441,1.4414,1.4447,1.4456,1.448,1.4489,1.4502,1.4513,1.4541,1.4557,1.4564,1.4575,1.4596,1.4613,1.4615,1.4623,1.4631,1.4632,1.4594,1.4589,1.4585,1.4579,1.4632,1.4632,1.467,1.467,1.467]}]]